Regional Weather Roundup
Issued by NWS

Home | Current Version | Previous Version | Text Only | Print | Product List | Glossary Off
Versions: 1 2 3 4 5 6 7 8 9 10 11 12 13 14 15 16 17 18 19 20 21 22 23 24 25 26 27 28

000
ASUS45 KCYS 272010
RWRWY

WYOMING REGIONAL WEATHER ROUNDUP
NATIONAL WEATHER SERVICE CHEYENNE WY
200 PM MDT WED APR 27 2016

NOTE:  "FAIR" INDICATES FEW OR NO CLOUDS BELOW 12,000 FEET
WITH NO SIGNIFICANT WEATHER AND/OR OBSTRUCTIONS TO VISIBILITY.

WYZ001-272100-
YELLOWSTONE NATIONAL PARK

CITY           SKY/WX    TMP DP  RH WIND       PRES   REMARKS
LK YELLOWSTONE   N/A     35  22  58 VRB3      29.89F
W YELLOWSTONE  NOT AVBL

$$
WYZ002>013-054>058-071-098>099-272100-
NORTHERN WYOMING

CITY           SKY/WX    TMP DP  RH WIND       PRES   REMARKS
JACKSON        MOSUNNY   46  23  39 NE8       29.84S
CODY           CLOUDY    39  34  81 N12       29.91F WCI  32
GREYBULL       CLOUDY    47  28  47 NW18G24   29.89F
WORLAND        LGT RAIN  40  34  79 N3        29.91F
SHERIDAN       CLOUDY    40  33  76 N20       29.92S WCI  30
BUFFALO        CLOUDY    37  30  75 N20G28    29.89S WCI  27
GILLETTE       FLURRIES  35  35 100 N15       29.88S WCI  25
HULETT         LGT SNOW  36  34  93 N6        29.88S WCI  31
NEWCASTLE      FAIR      39  32  75 NW17G30   29.82S WCI  30

$$
WYZ014>020-022>026-101>103-272100-
CENTRAL WYOMING

CITY           SKY/WX    TMP DP  RH WIND       PRES   REMARKS
BIG PINEY      CLOUDY    43  25  49 SE9       29.84F
PINEDALE       CLOUDY    43  25  49 NW12G17   29.85S
DUBOIS         CLOUDY    39  28  65 SE5       29.84F
LANDER         CLOUDY    37  32  82 S5        29.88F WCI  33
RIVERTON       CLOUDY    40  30  67 E7        29.89F
CASPER         CLOUDY    37  25  61 MISG      29.90S
DOUGLAS        CLOUDY    37  30  75 NW15      29.88S WCI  28

$$
WYZ021-027>030-104>119-272100-
SOUTHERN WYOMING

CITY           SKY/WX    TMP DP  RH WIND       PRES   REMARKS
EVANSTON       PTSUNNY   45  34  65 NE12      29.84F
KEMMERER         N/A     45  32  61 SW15      29.85S
FORT BRIDGER   LGT RAIN  46  34  61 N5        29.88F
ROCK SPRINGS   FAIR      40  30  67 N5        29.87F
DIXON          CLOUDY    45  29  54 W8G16     29.87F
RAWLINS        PTSUNNY   39  30  70 N5        29.87F
SARATOGA       CLOUDY    36  32  87 NE9       29.87F WCI  29
LARAMIE        FAIR      32  26  78 N23G32    29.82S WCI  19
CHEYENNE       FAIR      39  27  62 N26G37    29.81F WCI  28
TORRINGTON     PTSUNNY   43  28  55 NW25G35   29.81R
PINE BLUFFS    FAIR      45  28  53 NW25G35   29.80F

$$




USA.gov is the U.S. government's official web portal to all federal, state and local government web resources and services.